User: anonymous   Login
Location: Oshawa
(43.9000°N, 78.8670°W)
Time: 18:26:15
(UTC-04:00)
Language:

Cosmos 2333 Rocket - Orbit

View from above orbital plane
View from above orbital plane
View from above satellite
View from above satellite

Ground track
Ground track

The orbit data is extracted from the following two-line orbital elements,

1 24298U 96051B   16179.91443484 +.00000065 +00000-0 +61719-4 0  9996
2 24298 070.8376 088.8186 0015451 337.4405 022.6034 14.12408180021536
Epoch (UTC): 27 June 2016 21:56:47
Eccentricity: 0.0015451
inclination: 70.8376°
perigee height: 840 km
apogee height: 862 km
right ascension of ascending node: 88.8186°
argument of perigee: 337.4405°
revolutions per day: 14.12408180
mean anomaly at epoch: 22.6034°
orbit number at epoch: 2153

The dashed part of the orbit path shows where the satellite is in the earth's shadow,  

DLR